Regional Weather Roundup
Issued by NWS Green Bay, WI

Home | Current Version | Previous Version | Graphics & Text | Print | Product List | Glossary Off
Versions: 1 2 3 4 5 6 7 8 9 10 11 12 13 14 15 16 17 18 19 20 21 22 23 24 25 26 27 28 29 30 31 32 33 34 35 36 37 38 39 40 41 42 43 44 45 46 47 48 49 50

653
ASUS43 KGRB 270711
RWRGRB

NORTH-CENTRAL AND NORTHEAST WISCONSIN REGIONAL WEATHER ROUNDUP
NATIONAL WEATHER SERVICE GREEN BAY WI
200 AM CDT TUE SEP 27 2016

WIZ005-009-010>012-018-019-270800-
NORTH CENTRAL WISCONSIN

CITY           SKY/WX    TMP DP  RH WIND       PRES   REMARKS
IRONWOOD       NOT AVBL
MANITOWISH WTR CLOUDY    47  47 100 W15G23    29.63S
ARBOR VITAE    CLOUDY    52  48  88 W8G20     29.64F
EAGLE RIVER    CLOUDY    48  46  95 W13G22    29.62S
LAND O LAKES   DRIZZLE   48  47  94 W13       29.62S
RHINELANDER    CLOUDY    50  45  83 W17G24    29.66F
PHILLIPS       CLOUDY    51  43  75 W8G16     29.68S
ANTIGO         CLOUDY    50  42  74 W12       29.68S
TOMAHAWK       CLOUDY    51  42  71 W8        29.68S
MERRILL        CLOUDY    53  42  66 W14G22    29.69F
$$

WIZ013-073-270800-
NORTHEAST WISCONSIN

CITY           SKY/WX    TMP DP  RH WIND       PRES   REMARKS
IRON MOUNTAIN  CLOUDY    51  44  77 W12       29.59S
MARINETTE      CLOUDY    53  43  68 W7        29.65F
OCONTO         CLOUDY    52  42  67 SW7       29.67F
$$

WIZ017-030-035>037-045-270800-
CENTRAL WISCONSIN

CITY           SKY/WX    TMP DP  RH WIND       PRES   REMARKS
MEDFORD        CLOUDY    50  41  71 W10       29.71S
WAUSAU         CLOUDY    52  41  66 W12       29.69F
MOSINEE        CLOUDY    50  41  71 W16       29.73S
MARSHFIELD     MOCLDY    50  39  66 W10       29.74S
WISC RAPIDS    PTCLDY    50  40  68 W9        29.77S
STEVENS POINT  CLOUDY    50  38  64 W12       29.74S
WAUPACA        CLOUDY    55  40  55 SW9       29.74S
SHAWANO        CLOUDY    56  42  59 W8        29.70S
CLINTONVILLE   NOT AVBL
WAUTOMA        CLEAR     48  39  71 W5        29.77F
$$

WIZ038-039-048-051-270800-
FOX VALLEY

CITY           SKY/WX    TMP DP  RH WIND       PRES   REMARKS
NWS GREEN BAY  CLOUDY    53  43  68 SW9       29.71F
APPLETON       CLOUDY    50  36  57 SW10      29.72S
OSHKOSH        CLOUDY    54  38  54 VRB7      29.75S
FOND DU LAC    PTCLDY    52  39  61 SW9       29.77F
$$

WIZ022-050-052-270800-
EAST CENTRAL WISCONSIN

CITY           SKY/WX    TMP DP  RH WIND       PRES   REMARKS
EPHRAIM        CLOUDY    55  44  67 W12G22    29.64F
WASHINGTON ISL CLOUDY    55  44  67 W16G26    29.62S
STURGEON BAY   CLOUDY    56  43  61 W15       29.68S
MANITOWOC      PTCLDY    55  41  59 SW5       29.74S
SHEBOYGAN      CLOUDY    52  40  63 SW12      29.76F
$$

LMZ563-521-522-541>543-270800-
LAKESHORE

STATION/POSITION TIME  TEMP    WIND        PRES    VSBY  WAVE
                       AIR SEA DIR/SP/G                  HT/PER
                 (UTC) (F)     (DEG/KT/KT) (MB)    (MI)  (FT/S)
SHEBOYGAN LKSHOR 0700   55     250/ 13/ 15 1007.3F
KEWAUNEE LKSHORE 0600   56     240/  8/ 12 1005.7F
NORTHPORT PIER   0600   57     280/  7/ 20 1003.7F
N MID LAKE BUOY  0650   58 66  250/ 25/ 29 1001.8F         7/ 6
CHAMBERS ISLAND  0600   56     220/  7/ 18 1003.7F
MENOMINEE LKSHOR 0600   56     240/ 14/ 17 1003.7F
$$




USA.gov is the U.S. government's official web portal to all federal, state and local government web resources and services.